Terminal Aerodrome Forecast
Issued by NWS

Home | Current Version | Previous Version | Text Only | Print | Product List | Glossary On
Versions: 1 2 3 4 5 6 7 8 9 10 11 12 13 14 15 16 17 18 19 20 21 22 23 24 25 26 27 28 29 30 31 32 33 34 35 36 37 38 39 40 41 42 43
000
FTAK31 PANC 172331
TAFAEN
TAF
PAEN 172331Z 1800/1824 02007KT P6SM VCSH SCT008 BKN050 OVC100
      TEMPO 1800/1802 BKN003 OVC008
     FM180600 02018KT P6SM SCT070 BKN150=

USA.gov is the U.S. government's official web portal to all federal, state and local government web resources and services.